Location: Newark
(40.7060°N, 73.9980°W)
Time: 06:15:45
(UTC+00:00)

ISS - Visible Passes

Search period start: 26 February 2021 00:00
Search period end: 08 March 2021 00:00
Orbit: 417 x 422 km, 51.6° (Epoch: 26 February)

Date Brightness Start Highest point End Pass type
(mag) Time Alt. Az. Time Alt. Az. Time Alt. Az.
26 Feb -1.2 09:16:37 19° NE 09:16:37 19° NE 09:17:43 10° NE visible
26 Feb -1.6 10:49:47 10° NW 10:51:53 15° NNW 10:53:59 10° NNE visible
27 Feb -1.8 10:04:01 18° NNW 10:04:12 18° NNW 10:06:39 10° NNE visible
28 Feb -1.1 09:18:23 15° NNE 09:18:23 15° NNE 09:19:20 10° NNE visible
28 Feb -1.3 10:52:38 10° NNW 10:54:17 13° N 10:55:54 10° NNE visible
01 Mar -1.4 10:05:41 13° NNW 10:06:32 14° N 10:08:19 10° NNE visible
02 Mar -1.0 09:19:59 13° NNE 09:19:59 13° NNE 09:20:53 10° NNE visible
02 Mar -1.2 10:54:48 10° NNW 10:56:39 14° N 10:58:31 10° NE visible
03 Mar -1.2 10:07:14 10° NNW 10:08:52 13° N 10:10:32 10° NNE visible
04 Mar -1.0 09:21:31 13° N 09:21:31 13° N 09:22:43 10° NNE visible
04 Mar -1.5 10:56:22 10° NNW 10:58:53 19° NNE 11:01:25 10° ENE visible
05 Mar -1.3 10:08:59 10° NNW 10:11:09 16° NNE 10:13:20 10° NE visible
06 Mar -1.1 09:23:04 14° N 09:23:22 14° N 09:25:14 10° NE visible
07 Mar -1.8 10:10:25 10° NW 10:13:16 25° NNE 10:16:07 10° E visible
